Terminal Aerodrome Forecast
Issued by NWS

Home | Current Version | Previous Version | Graphics & Text | Print | Product List | Glossary On
Versions: 1 2 3 4 5 6 7 8 9 10 11 12 13 14 15 16 17 18
000
FTUS43 KBIS 290500
TAFDIK
TAF
KDIK 290531Z 2906/3006 20008KT P6SM SCT100
     FM291500 34014KT P6SM VCSH SCT030 BKN080
     FM292100 36009KT P6SM BKN080=

USA.gov is the U.S. government's official web portal to all federal, state and local government web resources and services.